La Grande, OR

4:40 PM PDT on October 14, 2019 (GMT -0700)
La Grande-Union County

Weather History for KLGD - August, 2019

Change the Weather History Date:

Monday, August 12, 2019

  Actual Average Record
Temperature  
Mean Temperature 62 °F -  
Max Temperature 80 °F 84 °F 100 °F (1971)
Min Temperature 45 °F 49 °F 42 °F (2005)
Degree Days  
Heating Degree Days 2    
Growing Degree Days 12 (Base 50)    
Moisture  
Dew Point 48 °F    
Average Humidity 62    
Maximum Humidity 97    
Minimum Humidity 31    
Precipitation  
Precipitation 0.00 in - - ()
Sea Level Pressure  
Sea Level Pressure 30.54 in    
Wind  
Wind Speed 4 mph (NNW)    
Max Wind Speed 9 mph    
Max Gust Speed -    
Visibility 10 miles    
Events      
Averages and records for this station are not official NWS values.
T = Trace of Precipitation, MM = Missing Value Source: NWS Daily Summary

Daily Weather History Graph

Daily Weather History Graph

Search for Another Location

Airport or City:

Astronomy

Aug. 12, 2019 Rise Set
Actual Time 5:49 AM PDT 8:03 PM PDT
Civil Twilight 5:16 AM PDT 8:36 PM PDT
Nautical Twilight 4:36 AM PDT 9:16 PM PDT
Astronomical Twilight 3:51 AM PDT 10:01 PM PDT
Moon 6:44 PM PDT (8/12) 2:55 AM PDT (8/12)
Length of Visible Light 15h 19m
Length of Day
14h 14m
Waxing Gibbous, 93% of the Moon is Illuminated
Aug 12
Waxing Gibbous
Aug 15
Full
Aug 23
Last Quarter
Aug 30
New
Sep 5
First Quarter

Hourly Weather History & Observations

Time (PDT) Temp. Dew Point Humidity Pressure Visibility Wind Dir Wind Speed Gust Speed Precip Events Conditions
12:56 AM 55.9 °F 48.9 °F 77% 30.55 in 10.0 mi North 9.2 mph - N/A   Mostly Cloudy
1:56 AM 52.0 °F 48.0 °F 86% 30.56 in 10.0 mi Calm Calm - N/A   Clear
2:56 AM 52.0 °F 48.0 °F 86% 30.56 in 10.0 mi Calm Calm - N/A   Clear
3:56 AM 48.0 °F 45.0 °F 89% 30.56 in 10.0 mi Calm Calm - N/A   Clear
4:56 AM 46.0 °F 44.1 °F 93% 30.57 in 10.0 mi Calm Calm - N/A   Clear
5:56 AM 45.0 °F 44.1 °F 97% 30.58 in 10.0 mi Calm Calm - N/A   Clear
6:56 AM 48.0 °F 46.0 °F 93% 30.59 in 10.0 mi ESE 3.5 mph - N/A   Clear
7:56 AM 53.1 °F 48.0 °F 83% 30.61 in 10.0 mi SE 4.6 mph - N/A   Clear
8:56 AM 57.9 °F 50.0 °F 75% 30.60 in 10.0 mi Variable 3.5 mph - N/A   Clear
9:56 AM 63.0 °F 50.0 °F 63% 30.60 in 10.0 mi Calm Calm - N/A   Clear
10:56 AM 66.9 °F 51.1 °F 57% 30.58 in 10.0 mi Variable 3.5 mph - N/A   Clear
11:56 AM 70.0 °F 50.0 °F 49% 30.57 in 10.0 mi Variable 3.5 mph - N/A   Clear
12:56 PM 73.0 °F 48.9 °F 42% 30.54 in 10.0 mi NW 4.6 mph - N/A   Clear
1:56 PM 75.0 °F 48.0 °F 38% 30.53 in 10.0 mi Variable 3.5 mph - N/A   Clear
2:56 PM 78.1 °F 48.9 °F 36% 30.51 in 10.0 mi Variable 3.5 mph - N/A   Clear
3:56 PM 78.1 °F 46.9 °F 33% 30.50 in 10.0 mi Calm Calm - N/A   Clear
4:56 PM 80.1 °F 46.9 °F 31% 30.48 in 10.0 mi Calm Calm - N/A   Clear
5:56 PM 80.1 °F 46.9 °F 31% 30.47 in 10.0 mi North 4.6 mph - N/A   Clear
6:56 PM 75.0 °F 51.1 °F 43% 30.47 in 10.0 mi NNW 9.2 mph - N/A   Clear
7:56 PM 71.1 °F 51.1 °F 49% 30.48 in 10.0 mi North - - N/A   Clear
8:56 PM 68.0 °F 48.0 °F 49% 30.50 in 10.0 mi WNW 8.1 mph - N/A   Clear
9:56 PM 63.0 °F 48.9 °F 60% 30.51 in 10.0 mi North 9.2 mph - N/A   Clear
10:56 PM 63.0 °F 48.9 °F 60% 30.51 in 10.0 mi NW 9.2 mph - N/A   Clear
11:56 PM 60.1 °F 48.9 °F 67% 30.52 in 10.0 mi NW 4.6 mph - N/A   Clear